• Join FlightAware (Why Join?)
  • Login
  • US Flag GB Flag 
09:18 EDT


 

Airport Tracker/Info


-or-


 

Live Flight TrackerFlight Track Log ✈ SWA1887 ✈ 05-May-2013 ✈ KIND - KDEN

Flight Track Log - Related Links

Times and Time Zones

All times are in EDT time to prevent confusion due to time zone crossing. See the SWA1887 flight status page for this flight to view local times or setup timezone preferences in your user account.

Time Position Orientation Groundspeed Altitude Reporting Facility
EDT Latitude Longitude Course Direction KTS MPH feet Rate Location/Type
07:47 39.7333 -86.2833 14° North 147 169 1,800  Level Indianapolis TRACON
07:48 39.7833 -86.2667 14° North 227 261 3,600 1,680 Climbing Indianapolis TRACON
07:49 39.7667 -86.3667 258° West 284 327 5,500 2,340 Climbing Indianapolis TRACON
07:50 39.7383 -86.4644 249° West 285 328 8,700 2,940 Climbing Indianapolis Center
07:51 39.7122 -86.5775 253° West 311 358 11,900 2,940 Climbing Indianapolis Center
07:52 39.7064 -86.7044 267° West 341 392 14,700 2,820 Climbing Indianapolis Center
07:54 39.6983 -86.8692 266° West 365 420 17,800 2,760 Climbing Indianapolis Center
07:55 39.6914 -87.0150 267° West 390 449 20,400 2,400 Climbing Indianapolis Center
07:56 39.6836 -87.1667 266° West 417 480 22,700 2,580 Climbing Indianapolis Center
07:57 39.6753 -87.3228 266° West 432 497 25,700 2,640 Climbing Indianapolis Center
07:58 39.6678 -87.4706 266° West 417 480 28,100 1,800 Climbing Indianapolis Center
07:59 39.6600 -87.6247 266° West 426 490 29,400 1,260 Climbing Indianapolis Center
08:00 39.6506 -87.7878 266° West 449 517 30,700 1,140 Climbing Indianapolis Center
08:01 39.6428 -87.9561 267° West 464 534 31,800 1,380 Climbing Indianapolis Center
08:02 39.6278 -88.1664 265° West 485 558 33,600 1,740 Climbing Indianapolis Center
08:02 39.6225 -88.2794 267° West 483 556 34,900 1,380 Climbing Kansas City Center
08:03 39.6147 -88.4497 267° West 478 550 36,000 540 Climbing Kansas City Center
08:04 39.6375 -88.6097 281° West 480 552 36,000  Level Kansas City Center
08:05 39.6611 -88.7783 280° West 476 548 36,000  Level Kansas City Center
08:06 39.6839 -88.9478 280° West 476 548 36,000  Level Kansas City Center
08:07 39.7075 -89.1167 280° West 476 548 36,000  Level Kansas City Center
08:08 39.7306 -89.2853 280° West 474 545 36,000 360 Level Kansas City Center
08:09 39.7547 -89.4542 281° West 474 545 36,800 960 Climbing Kansas City Center
08:10 39.7769 -89.6244 280° West 476 548 38,000 540 Climbing Kansas City Center
08:11 39.8003 -89.7956 280° West 478 550 38,000  Level Kansas City Center
08:12 39.8225 -89.9672 280° West 479 551 38,000  Level Kansas City Center
08:14 39.8456 -90.1400 280° West 481 554 38,000  Level Kansas City Center
08:15 39.8667 -90.3125 279° West 481 554 38,000  Level Kansas City Center
08:16 39.8892 -90.4839 280° West 480 552 38,000  Level Kansas City Center
08:17 39.9100 -90.6542 279° West 477 549 38,000  Level Kansas City Center
08:18 39.9314 -90.8256 279° West 477 549 38,000  Level Kansas City Center
08:19 39.9525 -90.9961 279° West 478 550 38,000  Level Kansas City Center
08:20 39.9781 -91.2003 279° West 480 552 38,000  Level Kansas City Center
08:21 40.0164 -91.3664 287° West 480 552 38,000  Level Kansas City Center
08:22 40.0544 -91.5314 287° West 480 552 38,000  Level Kansas City Center
08:23 40.0919 -91.6953 287° West 477 549 38,000  Level Kansas City Center
08:24 40.1283 -91.8553 287° West 467 537 38,000  Level Kansas City Center
08:25 40.1639 -92.0144 286° West 461 531 38,000  Level Kansas City Center
08:26 40.1986 -92.1733 286° West 459 528 38,000  Level Kansas City Center
08:27 40.2339 -92.3317 286° West 457 526 38,000  Level Kansas City Center
08:28 40.2736 -92.5100 286° West 452 520 38,000  Level Kansas City Center
08:29 40.3067 -92.6622 286° West 453 521 38,000  Level Kansas City Center
08:30 40.3383 -92.8125 285° West 452 520 38,000  Level Kansas City Center
08:31 40.3756 -92.9886 286° West 449 517 38,000  Level Kansas City Center
08:32 40.4061 -93.1306 286° West 450 518 38,000  Level Kansas City Center
08:33 40.4386 -93.2864 285° West 448 516 38,000  Level Kansas City Center
08:33 40.4556 -93.3806 283° West 448 516 38,000  Level Minneapolis Center
08:34 40.4892 -93.5369 286° West 447 514 38,000  Level Minneapolis Center
08:35 40.5197 -93.6925 285° West 445 512 38,000  Level Minneapolis Center
08:36 40.5514 -93.8475 285° West 443 510 38,000  Level Minneapolis Center
08:37 40.5831 -94.0014 285° West 440 506 38,000  Level Minneapolis Center
08:38 40.6203 -94.1872 285° West 440 506 38,000 240 Level Minneapolis Center
08:39 40.6503 -94.3436 284° West 443 510 38,500 480 Climbing Minneapolis Center
08:40 40.6828 -94.4986 286° West 444 511 39,000 240 Climbing Minneapolis Center
08:41 40.7108 -94.6431 284° West 436 502 39,000  Level Minneapolis Center
08:42 40.7417 -94.7947 285° West 429 494 39,000  Level Minneapolis Center
08:43 40.7717 -94.9469 285° West 427 491 39,000  Level Minneapolis Center
08:44 40.8006 -95.0981 284° West 425 489 39,000  Level Minneapolis Center
08:45 40.8297 -95.2478 284° West 422 486 39,000  Level Minneapolis Center
08:47 40.8597 -95.3975 285° West 421 484 39,000  Level Minneapolis Center
08:48 40.8928 -95.5786 284° West 420 483 39,000  Level Minneapolis Center
08:49 40.9206 -95.7314 284° West 423 487 39,000  Level Minneapolis Center
08:50 40.9489 -95.8828 284° West 422 486 39,000  Level Minneapolis Center
08:51 40.9761 -96.0325 284° West 418 481 39,000  Level Minneapolis Center
08:52 41.0047 -96.1842 284° West 420 483 39,000  Level Minneapolis Center
08:53 41.0319 -96.3353 283° West 419 482 39,000  Level Minneapolis Center
08:54 41.0586 -96.4858 283° West 418 481 39,000  Level Minneapolis Center
08:55 41.0853 -96.6367 283° West 418 481 39,000  Level Minneapolis Center
08:56 41.1119 -96.7869 283° West 419 482 39,000  Level Minneapolis Center
08:57 41.1392 -96.9381 283° West 420 483 39,000  Level Minneapolis Center
08:58 41.1639 -97.0881 282° West 417 480 39,000  Level Minneapolis Center
08:59 41.1889 -97.2378 283° West 415 478 39,000  Level Minneapolis Center
09:00 41.2156 -97.3881 283° West 416 479 39,000  Level Minneapolis Center
09:01 41.2408 -97.5397 283° West 415 478 39,000  Level Minneapolis Center
09:02 41.2664 -97.6889 283° West 415 478 39,000  Level Minneapolis Center
09:03 41.2911 -97.8389 282° West 416 479 39,000  Level Minneapolis Center
09:04 41.3158 -97.9892 282° West 417 480 39,000  Level Minneapolis Center
09:05 41.3358 -98.1092 283° West 417 480 39,000  Level Minneapolis Center
09:06 41.3653 -98.2892 282° West 416 479 39,000  Level Minneapolis Center
09:07 41.3553 -98.4375 265° West 413 475 39,000  Level Minneapolis Center
09:08 41.3192 -98.5831 252° West 417 480 39,000  Level Minneapolis Center
09:09 41.2836 -98.7281 252° West 415 478 39,000  Level Minneapolis Center
09:10 41.2411 -98.9017 252° West 412 474 39,000  Level Minneapolis Center
09:10 41.2308 -98.9417 251° West 411 473 39,000  Level Denver Center
09:11 41.1922 -99.0942 251° West 411 473 39,000  Level Denver Center
09:12 41.1567 -99.2367 252° West 410 472 39,000  Level Denver Center
09:13 41.1206 -99.3792 251° West 409 471 39,000  Level Denver Center
09:14 41.0867 -99.5111 251° West 406 467 39,000  Level Denver Center
09:15 41.0486 -99.6597 251° West 402 463 39,000  Level Denver Center
09:16 41.0131 -99.7997 251° West 400 460 39,000  Level Denver Center
09:17 40.9778 -99.9361 251° West 403 464 39,000  Level Denver Center
09:18 40.9531 -100.0781 257° West 411 473 39,000  Level Denver Center
09:19 40.9239 -100.2425 257° West 413 475 39,000  Level Denver Center
09:20 40.8983 -100.3814 256° West 408 470 39,000  Level Denver Center
09:21 40.8731 -100.5211 257° West 409 471 39,000  Level Denver Center
09:22 40.8447 -100.6736 256° West 407 468 39,000  Level Denver Center
09:23 40.8156 -100.8189 255° West 409 471 39,000  Level Denver Center
09:24 40.7872 -100.9719 256° West 404 465 39,000  Level Denver Center
09:25 40.7606 -101.1100 256° West 404 465 39,000  Level Denver Center
09:26 40.7344 -101.2489 256° West 407 468 39,000  Level Denver Center
09:27 40.7033 -101.4097 256° West 406 467 39,000  Level Denver Center
09:28 40.6764 -101.5456 255° West 402 463 39,000  Level Denver Center
09:29 40.6500 -101.6808 256° West 399 459 39,000  Level Denver Center
09:30 40.6183 -101.8392 255° West 400 460 39,000  Level Denver Center
09:31 40.5919 -101.9767 256° West 405 466 39,000  Level Denver Center
09:32 40.5642 -102.1119 255° West 401 461 39,000  Level Denver Center
09:33 40.5325 -102.2692 255° West 399 459 39,000  Level Denver Center
09:34 40.5053 -102.4033 255° West 398 458 39,000 -240 Level Denver Center
09:35 40.4792 -102.5364 256° West 394 453 38,600 -1,080 Descending Denver Center
09:36 40.4475 -102.6844 254° West 399 459 36,900 -2,220 Descending Denver Center
09:37 40.4189 -102.8233 255° West 392 451 34,100 -2,520 Descending Denver Center
09:39 40.3906 -102.9606 255° West 387 445 31,400 -2,340 Descending Denver Center
09:40 40.3567 -103.1200 254° West 385 443 28,900 -2,400 Descending Denver Center
09:41 40.3269 -103.2594 254° West 394 453 26,600 -2,280 Descending Denver Center
09:42 40.2983 -103.3978 255° West 391 450 24,400 -2,220 Descending Denver Center
09:43 40.2689 -103.5328 254° West 384 442 22,200 -2,220 Descending Denver Center
09:44 40.2422 -103.6603 255° West 365 420 20,000 -1,980 Descending Denver Center
09:45 40.2111 -103.8011 254° West 355 409 18,200 -1,320 Descending Denver Center
09:46 40.2058 -103.9083 266° West 297 342 17,400 -1,260 Descending Denver Center
09:47 40.2042 -104.0139 269° West 301 346 15,700 -1,740 Descending Denver Center
09:48 40.1892 -104.1203 260° West 300 345 14,000 -1,620 Descending Denver Center
09:49 40.1744 -104.2239 259° West 294 338 12,500 -1,500 Descending Denver Center
09:50 40.1614 -104.3333 261° West 284 327 11,000 -1,260 Descending Denver Center
09:51 40.1517 -104.4325 263° West 278 320 10,000 -840 Descending Denver Center
09:52 40.1444 -104.5197 264° West 248 285 9,300 -960 Descending Denver Center
09:53 40.1200 -104.5933 247° West 232 267 8,100 -1,020 Descending Denver Center
09:54 40.0683 -104.6389 214° Southwest 223 257 7,300 -600 Descending Denver Center
09:55 40.0158 -104.6833 213° Southwest 211 243 7,000 -300 Descending Denver Center
09:56 39.9689 -104.6864 183° South 170 196 6,700 -540 Descending Denver Center
09:57 39.9278 -104.6864 180° South 151 174 6,000 -720 Descending Denver Center
09:58 39.8900 -104.6869 181° South 138 159 5,300 -720 Descending Denver Center
10:00 39.8617 -104.6732 North  Level Estimated
10:07 39.8617 -104.6732 North  Level Estimated
10:08 39.8617 -104.6732 North  Level Estimated
10:09 39.8617 -104.6732 North  Level Estimated